Find Starlink 5922

NORAD ID: 55925 Int'l Des: 2023-037 Owner: SPXS Country: US Constellation: starlink operational
LEOCIRCULAR

リアルタイム位置

3D地球を読み込み中...

Starlink 5922について

説明を読み込み中...

次回通過

Passes for default location (London). Set your location on the main map for personalized predictions.

高度履歴

Loading altitude history...

軌道要素

1 55925U 23037M 26122.19506406 -.00000261 00000-0 -14086-4 0 9999
2 55925 69.9995 169.4750 0003353 269.2586 90.8189 14.98328990171501
Epoch: May 2, 2026 • Age: 4 hours

現在のステータス

高度 585.0 km
速度 7.57 km/s
衛星直下点 65.41°N, 122.18°W
打ち上げ日 Mar 17, 2023
運用期間 3.1 years
タイプ internet

技術仕様

分類 Payload
質量 305.00 kg
乾燥質量 290.00 kg
総質量 305.00 kg
長さ 0.20 m
直径 2.80 m
スパン 9.00 m
形状 Box + pan
製造者 SPXS
バスタイプ Starlink
フェーズステータス In Orbit
所有者/国 SPXS/US

Most Searched